Tracking 28052 objects as of 24-Sep-2023
HD Live streaming from Space Station
objects crossing your sky now

STARLINK-6331

Track STARLINK-6331 now!
10-day predictions
STARLINK-6331 is classified as:


NORAD ID: 57351
Int'l Code: 2023-099Z
Perigee: 565.3 km
Apogee: 567.1 km
Inclination: 43.0 °
Period: 95.8 minutes
Semi major axis: 6937 km
RCS: Unknown
Launch date: July 16, 2023
Source: United States (US)
Launch site: AIR FORCE EASTERN TEST RANGE (AFETR)
Your satellite tracking list
Your tracking list is empty




NASA's NSSDC Master Catalog

Two Line Element Set (TLE):
1 57351U 23099Z   23266.91692592 -.00000385  00000-0 -13393-4 0  9997
2 57351  43.0013  86.7515 0001342 272.4920  87.5769 15.02541031 11862
Source of the keplerian elements: AFSPC